Location: Kershaw
(34.5481°N, 80.5823°W)
Time: 21:58:25
(UTC+00:00)

Vanguard 2 Rocket - Pass Details

Date: 04 October 2022
Orbit: 555 x 3321 km, 32.9° (Epoch: 28 November)

Event Time Altitude Azimuth Distance (km) Brightness Sun altitude
Rises 23:25:25 0° 196° (SSW) 7,213 11.7 -5.6°
Reaches altitude 10° 23:32:22 10° 182° (S) 6,269 11.2 -7.0°
Maximum altitude 23:45:10 21° 142° (SE) 5,104 10.3 -9.7°
Enters shadow 23:55:01 12° 105° (ESE) 5,272 10.1 -11.7°
